FW8891 Weather Reports


Display with metric or nautical units.
time (UTC)temp
F
wind
direction
speed
MPH
gust
MPH
rain 1hr
in
rain 24hr
in
rain mn
in
humidity
%
barometer
mb
20260904013559 98 227 4.0 10.0 0.00 0.00 0.00 32 1008.5
20260904013059 98 120 3.0 10.0 0.00 0.00 0.00 32 1008.5
20260904012558 98 198 5.0 9.0 0.00 0.00 0.00 32 1008.5
20260904012058 99 176 5.0 11.0 0.00 0.00 0.00 32 1008.5
20260904011609 99 157 4.0 11.0 0.00 0.00 0.00 32 1008.4
20260904011057 99 160 5.0 11.0 0.00 0.00 0.00 32 1008.4
20260904010558 99 200 6.0 13.0 0.00 0.00 0.00 32 1008.5
20260904005600 99 163 6.0 13.0 0.00 0.00 0.00 32 1008.5
20260904005058 99 164 4.0 13.0 0.00 0.00 0.00 32 1008.5
20260904004604 99 141 7.0 15.0 0.00 0.00 0.00 32 1008.5
20260904004058 99 233 7.0 15.0 0.00 0.00 0.00 32 1008.5
20260904003558 100 96 5.0 12.0 0.00 0.00 0.00 32 1008.5
20260904003103 100 175 6.0 9.0 0.00 0.00 0.00 32 1008.5
20260904002558 100 132 4.0 7.0 0.00 0.00 0.00 34 1008.5
20260904002059 100 150 3.0 10.0 0.00 0.00 0.00 34 1008.6
20260904001603 100 158 4.0 10.0 0.00 0.00 0.00 34 1008.5
20260904001058 100 134 4.0 9.0 0.00 0.00 0.00 34 1008.6
20260904000558 100 121 3.0 7.0 0.00 0.00 0.00 34 1008.6
20260903235558 100 252 3.0 7.0 0.00 0.00 0.00 33 1008.8
20260903235057 100 270 4.0 7.0 0.00 0.00 0.00 33 1008.9
20260903234601 99 143 4.0 7.0 0.00 0.00 0.00 34 1008.8
20260903234058 99 96 4.0 8.0 0.00 0.00 0.00 35 1008.9
20260903233559 99 113 5.0 8.0 0.00 0.00 0.00 35 1008.9
20260903233101 99 113 4.0 10.0 0.00 0.00 0.00 35 1008.9
20260903232558 99 141 6.0 10.0 0.00 0.00 0.00 35 1008.9
20260903232058 100 146 5.0 14.0 0.00 0.00 0.00 34 1009.0
20260903231612 100 216 6.0 14.0 0.00 0.00 0.00 33 1009.1
20260903231058 100 157 6.0 12.0 0.00 0.00 0.00 33 1009.1
20260903230602 101 172 7.0 11.0 0.00 0.00 0.00 31 1009.1
20260903230113 102 142 4.0 8.0 0.00 0.00 0.00 32 1009.2
20260903225558 102 195 3.0 13.0 0.00 0.00 0.00 32 1009.2
20260903225100 102 207 4.0 13.0 0.00 0.00 0.00 32 1009.3
20260903224600 101 160 5.0 11.0 0.00 0.00 0.00 33 1009.2
20260903224058 100 207 2.0 6.0 0.00 0.00 0.00 34 1008.9
20260903223601 100 111 1.0 8.0 0.00 0.00 0.00 34 1009.4
20260903223113 100 226 3.0 8.0 0.00 0.00 0.00 34 1009.6
20260903222558 101 167 2.0 10.0 0.00 0.00 0.00 33 1009.7
20260903222058 101 153 5.0 11.0 0.00 0.00 0.00 32 1009.8
20260903221601 101 230 5.0 11.0 0.00 0.00 0.00 34 1009.9
20260903221100 100 148 4.0 8.0 0.00 0.00 0.00 34 1009.9
20260903220558 100 177 3.0 11.0 0.00 0.00 0.00 35 1010.0
20260903220111 99 158 5.0 11.0 0.00 0.00 0.00 36 1010.1
20260903215600 100 117 5.0 11.0 0.00 0.00 0.00 34 1010.2
20260903215058 100 103 4.0 11.0 0.00 0.00 0.00 35 1010.2
20260903214606 101 102 3.0 6.0 0.00 0.00 0.00 33 1010.4
20260903214058 101 106 2.0 7.0 0.00 0.00 0.00 34 1010.5
20260903213558 100 115 3.0 10.0 0.00 0.00 0.00 35 1010.6
20260903213100 99 61 5.0 12.0 0.00 0.00 0.00 34 1010.7
20260903212558 100 123 6.0 12.0 0.00 0.00 0.00 35 1010.7
20260903212058 101 105 3.0 10.0 0.00 0.00 0.00 33 1010.9
20260903211616 101 206 5.0 10.0 0.00 0.00 0.00 33 1010.9
20260903211059 101 127 3.0 10.0 0.00 0.00 0.00 33 1011.0
20260903210559 100 209 4.0 12.0 0.00 0.00 0.00 34 1011.1
20260903205558 101 108 3.0 12.0 0.00 0.00 0.00 33 1011.3
20260903205058 101 271 6.0 12.0 0.00 0.00 0.00 34 1011.3
20260903204605 100 111 4.0 11.0 0.00 0.00 0.00 35 1011.3
20260903204101 99 172 5.0 11.0 0.00 0.00 0.00 35 1011.4
20260903203558 100 73 4.0 11.0 0.00 0.00 0.00 35 1011.5
20260903203105 100 239 2.0 11.0 0.00 0.00 0.00 35 1011.5
20260903202558 99 136 6.0 11.0 0.00 0.00 0.00 35 1011.7
20260903202059 99 128 3.0 10.0 0.00 0.00 0.00 35 1011.7
20260903201602 99 161 5.0 10.0 0.00 0.00 0.00 34 1011.8
20260903201058 100 164 3.0 9.0 0.00 0.00 0.00 35 1011.8
20260903200559 99 262 2.0 12.0 0.00 0.00 0.00 34 1011.8
20260903200112 98 235 5.0 12.0 0.00 0.00 0.00 36 1011.9
20260903195558 98 97 5.0 11.0 0.00 0.00 0.00 35 1011.9
20260903195102 97 90 5.0 11.0 0.00 0.00 0.00 37 1012.0
20260903194605 98 136 4.0 10.0 0.00 0.00 0.00 38 1012.1
20260903194058 97 200 4.0 9.0 0.00 0.00 0.00 38 1012.2
20260903193558 96 0 2.0 9.0 0.00 0.00 0.00 38 1012.3
20260903193105 97 134 5.0 9.0 0.00 0.00 0.00 38 1012.4
20260903192558 97 68 2.0 9.0 0.00 0.00 0.00 38 1012.4
20260903192059 97 167 4.0 12.0 0.00 0.00 0.00 37 1012.5
20260903191608 97 125 6.0 12.0 0.00 0.00 0.00 39 1012.6
20260903191058 97 79 3.0 10.0 0.00 0.00 0.00 39 1012.6
20260903190558 96 77 2.0 10.0 0.00 0.00 0.00 39 1012.8
20260903185558 96 143 3.0 8.0 0.00 0.00 0.00 40 1013.0
20260903185058 96 0 2.0 7.0 0.00 0.00 0.00 41 1013.0
20260903184604 97 131 1.0 7.0 0.00 0.00 0.00 40 1013.2
20260903184058 96 201 4.0 11.0 0.00 0.00 0.00 41 1013.2
20260903183558 96 124 2.0 11.0 0.00 0.00 0.00 42 1013.3
20260903183121 96 113 3.0 8.0 0.00 0.00 0.00 42 1013.4
20260903182558 95 231 2.0 12.0 0.00 0.00 0.00 43 1013.4
20260903182102 95 98 5.0 12.0 0.00 0.00 0.00 43 1013.6
20260903181629 95 139 1.0 7.0 0.00 0.00 0.00 42 1013.6
20260903181059 95 120 2.0 8.0 0.00 0.00 0.00 41 1013.7
20260903180557 95 142 4.0 8.0 0.00 0.00 0.00 40 1013.9
20260903175558 95 120 4.0 10.0 0.00 0.00 0.00 45 1014.0
20260903175103 95 136 3.0 9.0 0.00 0.00 0.00 45 1014.0
20260903174604 93 160 4.0 9.0 0.00 0.00 0.00 46 1014.1
20260903174059 93 181 4.0 9.0 0.00 0.00 0.00 46 1014.1
20260903173602 93 67 5.0 9.0 0.00 0.00 0.00 44 1014.2
20260903173112 94 178 3.0 8.0 0.00 0.00 0.00 46 1014.2
20260903172558 93 159 4.0 8.0 0.00 0.00 0.00 46 1014.1
20260903172059 92 135 3.0 10.0 0.00 0.00 0.00 47 1014.2
20260903171607 92 171 5.0 10.0 0.00 0.00 0.00 48 1014.2
20260903171058 92 129 6.0 10.0 0.00 0.00 0.00 48 1014.1
20260903170558 92 138 5.0 9.0 0.00 0.00 0.00 49 1014.1
20260903165559 92 161 6.0 11.0 0.00 0.00 0.00 49 1014.1
20260903165058 91 207 5.0 10.0 0.00 0.00 0.00 50 1014.2
20260903164608 91 164 4.0 11.0 0.00 0.00 0.00 51 1014.2
20260903164058 91 214 6.0 11.0 0.00 0.00 0.00 52 1014.2
20260903163558 91 181 5.0 10.0 0.00 0.00 0.00 53 1014.3
20260903163100 90 172 4.0 10.0 0.00 0.00 0.00 53 1014.2
20260903162559 91 193 5.0 9.0 0.00 0.00 0.00 52 1014.2
20260903162059 90 188 3.0 9.0 0.00 0.00 0.00 53 1014.3
20260903161617 89 143 2.0 7.0 0.00 0.00 0.00 55 1014.2
20260903161058 90 163 4.0 7.0 0.00 0.00 0.00 55 1014.4
20260903160558 89 147 3.0 6.0 0.00 0.00 0.00 55 1014.2
20260903160101 89 122 2.0 5.0 0.00 0.00 0.00 55 1014.4
20260903155559 89 152 2.0 5.0 0.00 0.00 0.00 54 1014.4
20260903155058 89 162 2.0 5.0 0.00 0.00 0.00 56 1014.4
20260903154603 89 153 0.0 4.0 0.00 0.00 0.00 55 1014.5
20260903154059 88 0 1.0 5.0 0.00 0.00 0.00 50 1014.4
20260903153558 87 23 2.0 5.0 0.00 0.00 0.00 57 1014.4
20260903153106 86 60 2.0 4.0 0.00 0.00 0.00 56 1014.4
20260903152558 85 55 2.0 4.0 0.00 0.00 0.00 55 1014.4
20260903152101 85 77 1.0 4.0 0.00 0.00 0.00 51 1014.4
20260903151614 84 63 2.0 4.0 0.00 0.00 0.00 51 1014.3
20260903151059 84 38 2.0 4.0 0.00 0.00 0.00 51 1014.4
20260903150600 84 64 1.0 4.0 0.00 0.00 0.00 51 1014.4
20260903145559 84 51 1.0 3.0 0.00 0.00 0.00 50 1014.4
20260903145100 84 63 1.0 3.0 0.00 0.00 0.00 48 1014.4
20260903144602 84 63 2.0 3.0 0.00 0.00 0.00 48 1014.4
20260903144100 84 71 0.0 2.0 0.00 0.00 0.00 48 1014.4
20260903143600 84 0 0.0 5.0 0.00 0.00 0.00 48 1014.3
20260903143103 84 53 0.0 5.0 0.00 0.00 0.00 48 1014.3
20260903142600 84 340 1.0 3.0 0.00 0.00 0.00 46 1014.2
20260903142100 85 62 1.0 2.0 0.00 0.00 0.00 45 1014.2
20260903141605 85 63 0.0 3.0 0.00 0.00 0.00 44 1014.2
20260903141101 85 0 0.0 3.0 0.00 0.00 0.00 45 1014.1
20260903140600 85 65 1.0 2.0 0.00 0.00 0.00 44 1014.1
20260903140104 85 56 1.0 2.0 0.00 0.00 0.00 45 1014.0
20260903135600 85 55 0.0 0.0 0.00 0.00 0.00 45 1014.0
20260903135100 84 0 0.0 0.0 0.00 0.00 0.00 47 1013.8
20260903134609 83 0 0.0 1.0 0.00 0.00 0.00 47 1013.7
20260903134100 83 0 0.0 1.0 0.00 0.00 0.00 47 1013.7
20260903133600 82 55 0.0 3.0 0.00 0.00 0.00 47 1013.7
20260903133109 82 0 0.0 4.0 0.00 0.00 0.00 48 1013.7
20260903132559 81 56 1.0 4.0 0.00 0.00 0.00 48 1013.6
20260903132100 80 53 2.0 4.0 0.00 0.00 0.00 49 1013.5
20260903131604 80 0 0.0 0.0 0.00 0.00 0.00 49 1013.4
20260903131059 81 0 0.0 0.0 0.00 0.00 0.00 48 1013.3
20260903130604 80 0 0.0 0.0 0.00 0.00 0.00 49 1013.2
20260903130105 80 0 0.0 0.0 0.00 0.00 0.00 48 1013.2
20260903125600 80 0 0.0 0.0 0.00 0.00 0.00 49 1013.2
20260903125100 79 0 0.0 0.0 0.00 0.00 0.00 49 1013.2
20260903124606 80 0 0.0 0.0 0.00 0.00 0.00 49 1013.2
20260903124059 80 0 0.0 0.0 0.00 0.00 0.00 50 1013.1
20260903123559 80 0 0.0 0.0 0.00 0.00 0.00 50 1013.0
20260903123105 80 0 0.0 0.0 0.00 0.00 0.00 49 1013.0
20260903122601 81 0 0.0 2.0 0.00 0.00 0.00 47 1012.9
20260903122100 81 0 1.0 2.0 0.00 0.00 0.00 47 1012.9
20260903121605 81 71 0.0 1.0 0.00 0.00 0.00 47 1012.8
20260903121059 80 0 0.0 1.0 0.00 0.00 0.00 47 1012.9
20260903120602 80 0 0.0 2.0 0.00 0.00 0.00 46 1012.8
20260903120104 80 0 0.0 2.0 0.00 0.00 0.00 46 1012.7
20260903115557 80 0 0.0 1.0 0.00 0.00 0.00 45 1012.7
20260903115058 80 0 0.0 1.0 0.00 0.00 0.00 44 1012.7
20260903114602 81 353 0.0 1.0 0.00 0.00 0.00 43 1012.7
20260903114058 81 0 0.0 1.0 0.00 0.00 0.00 44 1012.7
20260903113601 80 110 0.0 1.0 0.00 0.00 0.00 44 1012.6
20260903113102 80 0 0.0 1.0 0.00 0.00 0.00 44 1012.6
20260903112559 80 0 0.0 0.0 0.00 0.00 0.00 42 1012.7
20260903112059 80 0 0.0 1.0 0.00 0.00 0.00 42 1012.7
20260903111602 81 0 0.0 1.0 0.00 0.00 0.00 42 1012.7
20260903111058 81 0 0.0 3.0 0.00 0.00 0.00 42 1012.6
20260903110602 81 0 0.0 3.0 0.00 0.00 0.00 41 1012.7
20260903110106 81 61 0.0 0.0 0.00 0.00 0.00 41 1012.7
20260903105602 81 0 0.0 0.0 0.00 0.00 0.00 41 1012.6
20260903105058 81 0 0.0 0.0 0.00 0.00 0.00 42 1012.6
20260903104605 81 0 0.0 0.0 0.00 0.00 0.00 42 1012.6
20260903104058 81 0 0.0 0.0 0.00 0.00 0.00 42 1012.7
20260903103558 81 0 0.0 0.0 0.00 0.00 0.00 42 1012.7
20260903103101 81 0 0.0 0.0 0.00 0.00 0.00 42 1012.7
20260903102558 81 0 0.0 0.0 0.00 0.00 0.00 42 1012.7
20260903102058 81 0 0.0 0.0 0.00 0.00 0.00 41 1012.7
20260903101612 81 0 0.0 0.0 0.00 0.00 0.00 41 1012.8
20260903101059 82 0 0.0 0.0 0.00 0.00 0.00 41 1012.8
20260903100559 82 0 0.0 0.0 0.00 0.00 0.00 40 1012.8
20260903095558 82 0 0.0 0.0 0.00 0.00 0.00 39 1012.8
20260903095059 82 0 0.0 0.0 0.00 0.00 0.00 38 1012.7
20260903094610 82 0 0.0 0.0 0.00 0.00 0.00 38 1012.8
20260903094059 82 0 0.0 0.0 0.00 0.00 0.00 38 1012.7
20260903093559 82 0 0.0 0.0 0.00 0.00 0.00 38 1012.8
20260903093107 83 0 0.0 0.0 0.00 0.00 0.00 38 1012.7
20260903092558 83 0 0.0 1.0 0.00 0.00 0.00 37 1012.7
20260903092058 83 0 0.0 1.0 0.00 0.00 0.00 37 1012.7
20260903091608 83 0 0.0 1.0 0.00 0.00 0.00 37 1012.7
20260903091058 83 280 0.0 2.0 0.00 0.00 0.00 37 1012.8
20260903090558 83 0 0.0 2.0 0.00 0.00 0.00 37 1012.7
20260903090106 83 0 0.0 1.0 0.00 0.00 0.00 36 1012.7
20260903085559 83 0 0.0 1.0 0.00 0.00 0.00 36 1012.7
20260903085059 83 0 0.0 1.0 0.00 0.00 0.00 36 1012.7
20260903084600 84 0 0.0 1.0 0.00 0.00 0.00 36 1012.8
20260903084058 84 274 0.0 1.0 0.00 0.00 0.00 37 1012.7
20260903083559 84 0 0.0 3.0 0.00 0.00 0.00 37 1012.7
20260903083107 84 230 0.0 3.0 0.00 0.00 0.00 36 1012.6
20260903082558 84 167 1.0 3.0 0.00 0.00 0.00 36 1012.7
20260903082058 84 167 2.0 3.0 0.00 0.00 0.00 36 1012.7
20260903081602 84 188 1.0 2.0 0.00 0.00 0.00 36 1012.7
20260903081100 84 181 0.0 0.0 0.00 0.00 0.00 38 1012.6
20260903080559 84 0 0.0 0.0 0.00 0.00 0.00 37 1012.6
20260903080113 84 0 0.0 0.0 0.00 0.00 0.00 36 1012.5
20260903075559 84 0 0.0 0.0 0.00 0.00 0.00 36 1012.5
20260903075058 85 0 0.0 0.0 0.00 0.00 0.00 35 1012.5
20260903074602 85 0 0.0 0.0 0.00 0.00 0.00 35 1012.5
20260903074058 85 0 0.0 0.0 0.00 0.00 0.00 35 1012.5
20260903073558 86 0 0.0 1.0 0.00 0.00 0.00 35 1012.5
20260903073122 86 0 0.0 2.0 0.00 0.00 0.00 34 1012.4
20260903072558 86 259 1.0 2.0 0.00 0.00 0.00 35 1012.4
20260903072058 86 0 0.0 2.0 0.00 0.00 0.00 35 1012.4
20260903071603 86 285 0.0 2.0 0.00 0.00 0.00 35 1012.4
20260903071101 86 0 0.0 2.0 0.00 0.00 0.00 35 1012.5
20260903070602 86 279 1.0 2.0 0.00 0.00 0.00 34 1012.5
20260903070108 86 253 0.0 2.0 0.00 0.00 0.00 33 1012.4
20260903065558 86 0 0.0 2.0 0.00 0.00 0.00 34 1012.3
20260903065058 87 281 1.0 2.0 0.00 0.00 0.00 34 1012.3
20260903064603 87 258 0.0 2.0 0.00 0.00 0.00 34 1012.2
20260903064058 87 0 0.0 2.0 0.00 0.00 0.00 33 1012.2
20260903063558 87 0 0.0 2.0 0.00 0.00 0.00 33 1012.2
20260903063127 88 288 1.0 4.0 0.00 0.00 0.00 32 1012.2
20260903062559 88 274 1.0 5.0 0.00 0.00 0.00 32 1012.2
20260903062100 88 274 2.0 5.0 0.00 0.00 0.00 32 1012.2
20260903061604 88 247 2.0 5.0 0.00 0.00 0.00 32 1012.1
20260903061103 88 292 2.0 5.0 0.00 0.00 0.00 32 1012.2
20260903060558 88 295 2.0 5.0 0.00 0.00 0.00 33 1012.1
20260903060108 88 289 2.0 5.0 0.00 0.00 0.00 33 1012.1
20260903055558 88 309 2.0 5.0 0.00 0.00 0.00 33 1012.1
20260903055059 89 295 2.0 5.0 0.00 0.00 0.00 32 1012.1
20260903054601 89 261 1.0 5.0 0.00 0.00 0.00 31 1012.2
20260903054058 89 269 2.0 5.0 0.00 0.00 0.00 30 1012.1
20260903053557 89 266 2.0 4.0 0.00 0.00 0.00 30 1012.1
20260903053104 90 291 2.0 4.0 0.00 0.00 0.00 30 1012.1
20260903052559 90 298 2.0 5.0 0.00 0.00 0.00 30 1012.2
20260903052102 90 260 2.0 5.0 0.00 0.00 0.00 29 1012.2
20260903051606 90 284 2.0 5.0 0.00 0.00 0.00 29 1012.2
20260903051058 90 288 2.0 5.0 0.00 0.00 0.00 28 1012.2
20260903050601 91 234 3.0 5.0 0.00 0.00 0.00 28 1012.3
20260903045558 91 285 3.0 6.0 0.00 0.00 0.00 28 1012.2
20260903045058 91 286 2.0 6.0 0.00 0.00 0.00 29 1012.2
20260903044606 91 281 3.0 6.0 0.00 0.00 0.00 28 1012.1
20260903044059 91 328 3.0 6.0 0.00 0.00 0.00 28 1012.2
20260903043559 92 257 3.0 6.0 0.00 0.00 0.00 28 1012.2
20260903043110 92 248 3.0 6.0 0.00 0.00 0.00 28 1012.3
20260903042614 92 289 2.0 5.0 0.00 0.00 0.00 27 1012.2
20260903042101 92 283 2.0 6.0 0.00 0.00 0.00 27 1012.2
20260903041601 92 231 2.0 6.0 0.00 0.00 0.00 27 1012.1
20260903041058 93 280 3.0 6.0 0.00 0.00 0.00 27 1012.1
20260903040601 93 330 2.0 5.0 0.00 0.00 0.00 27 1012.0
20260903040105 93 263 2.0 5.0 0.00 0.00 0.00 27 1012.0
20260903035558 93 230 2.0 5.0 0.00 0.00 0.00 27 1011.9
20260903035058 93 228 1.0 3.0 0.00 0.00 0.00 27 1011.9
20260903034601 93 248 2.0 5.0 0.00 0.00 0.00 27 1011.9
20260903034059 93 277 2.0 5.0 0.00 0.00 0.00 28 1011.9
20260903033558 93 226 1.0 3.0 0.00 0.00 0.00 29 1011.9
20260903033103 93 210 1.0 3.0 0.00 0.00 0.00 29 1011.9
20260903032558 93 0 0.0 2.0 0.00 0.00 0.00 29 1011.8
20260903032100 93 212 0.0 4.0 0.00 0.00 0.00 28 1011.8
20260903031601 94 226 1.0 4.0 0.00 0.00 0.00 28 1011.7
20260903031101 94 167 1.0 3.0 0.00 0.00 0.00 28 1011.7
20260903030558 94 247 1.0 3.0 0.00 0.00 0.00 28 1011.7
20260903030110 94 262 1.0 3.0 0.00 0.00 0.00 29 1011.6
20260903025557 94 172 0.0 2.0 0.00 0.00 0.00 29 1011.6
20260903025101 95 0 0.0 3.0 0.00 0.00 0.00 29 1011.5
20260903024605 95 225 0.0 3.0 0.00 0.00 0.00 28 1011.4
20260903024102 95 246 1.0 4.0 0.00 0.00 0.00 28 1011.4
20260903023601 95 259 1.0 4.0 0.00 0.00 0.00 28 1011.4
20260903023106 96 266 2.0 4.0 0.00 0.00 0.00 28 1011.3
20260903022559 96 220 2.0 6.0 0.00 0.00 0.00 27 1011.2
20260903022059 96 232 2.0 6.0 0.00 0.00 0.00 27 1011.2
20260903021602 96 241 3.0 6.0 0.00 0.00 0.00 27 1011.2
20260903021059 96 178 2.0 6.0 0.00 0.00 0.00 27 1011.1
20260903020559 97 260 2.0 7.0 0.00 0.00 0.00 27 1011.1
20260903020106 97 303 2.0 7.0 0.00 0.00 0.00 27 1011.1
20260903015600 97 257 3.0 6.0 0.00 0.00 0.00 26 1011.1
20260903015058 98 235 2.0 6.0 0.00 0.00 0.00 27 1011.1
20260903014603 98 197 2.0 9.0 0.00 0.00 0.00 26 1011.0
20260903014058 98 240 3.0 9.0 0.00 0.00 0.00 26 1011.0